[[{"header":{"parameterUnit":"m.s-1","parameterCategory":2,"la1":30.2992,"la2":30.254,"lo1":-89.0895,"lo2":-89.0443,"dy":0.0025,"dx":0.0025,"nx":19,"ny":19,"refTime":"2026-04-07T09:00:00:Z","depth":"0","parameterNumber":2,"parameterNumberName":"U-component_of_CURRENTS"},"data":[0,0,0,0.165,0.165,0.163,0.163,0.162,0.162,0,0,0,0,0,0,0,0,0,0,0,0.1659,0.1659,0.165,0.165,0.1631,0.163,0.162,0.162,0,0,0,0,0,0,0,0,0,0,0,0.1659,0.1659,0.1659,0.165,0.1631,0.163,0.162,0.163,0,0,0,0,0,0,0,0,0,0,0.1646,0.1654,0.1659,0.1659,0.165,0.1631,0.163,0.163,0.1629,0.1634,0,0.1636,0,0.1629,0.162,0.162,0,0,0,0.1645,0.1654,0.1651,0.1659,0.165,0.1631,0.1638,0.1629,0.1628,0.1633,0.1636,0.1635,0.1629,0.162,0.162,0.1652,0.1652,0,0,0.1646,0.1653,0.1651,0.165,0.1651,0.1639,0.1637,0.1629,0.163,0.1636,0.1635,0.1629,0.162,0.162,0.1652,0.1652,0,0,0,0.1652,0.1654,0.165,0.1651,0.1647,0.1638,0.1637,0.163,0.1629,0.1634,0.1629,0.162,0.162,0.1651,0.1652,0.1689,0,0,0,0.1653,0.1658,0.165,0.1654,0.1647,0.1636,0.1639,0.163,0.1629,0.1629,0.162,0.162,0.1651,0.1652,0.1687,0.1697,0,0,0,0.1659,0.1658,0.1658,0.1654,0.1648,0.1636,0.1634,0.1629,0.1626,0.162,0.162,0.1651,0.1651,0.1686,0.1694,0.1721,0,0,0,0.1663,0.1668,0.1659,0.1665,0.1648,0.1649,0.1634,0.1633,0.163,0.162,0.1651,0.1652,0.1685,0.1693,0.1719,0.1673,0.1677,0,0,0.1671,0.1669,0.1673,0.1664,0.1671,0.1651,0.1668,0.1657,0.1646,0.1653,0.1653,0.1688,0.1694,0.172,0.172,0.1723,0,0,0,0.1677,0.168,0.1681,0.1682,0.1679,0.1686,0.1674,0.1679,0.1688,0.1648,0.1694,0.1697,0.1712,0.1681,0.1683,0.1572,0.1656,0.1655,0.1655,0.1692,0.1691,0.1691,0.1692,0.1699,0.1711,0.1723,0.1728,0.1714,0.173,0.1732,0.1783,0.1751,0.1752,0.1639,0.1741,0.1742,0.1742,0.1742,0.1687,0.1679,0.1688,0.1686,0.1704,0.172,0.1763,0.1772,0.1801,0.1777,0.1791,0.1728,0.1757,0.1635,0.1744,0.1744,0.1743,0.1743,0.1743,0.1676,0.167,0.1668,0.167,0.1695,0.1729,0.177,0.1811,0.1828,0.1846,0.1807,0.1806,0.1694,0.1854,0.1854,0.1855,0.1855,0.1855,0.1855,0.1654,0.1653,0.1648,0.166,0.1668,0.1711,0.1778,0.1807,0.1841,0.1841,0.1841,0.1693,0.1817,0.1807,0.1858,0.1857,0.1857,0.1857,0.1856,0.163,0.1639,0.1625,0.1627,0.1641,0.164,0.1727,0.1773,0.1822,0.1831,0.1694,0.1838,0.182,0.1817,0.1807,0.1854,0.1854,0.1854,0.1854,0.1619,0.1622,0.159,0.1577,0.1585,0.1601,0.1578,0.1616,0.1638,0.1602,0.1631,0.1576,0.1581,0.1545,0.1548,0.1531,0.1507,0.1507,0.1506,0.1605,0.1596,0.1559,0.1538,0.1538,0.1524,0.1447,0.1404,0.1439,0.1482,0.1487,0.1502,0.1411,0.1428,0.1363,0.1376,0.1346,0,0]},{"header":{"parameterUnit":"m.s-1","parameterCategory":2,"la1":30.2992,"la2":30.254,"lo1":-89.0895,"lo2":-89.0443,"dy":0.0025,"dx":0.0025,"nx":19,"ny":19,"refTime":"2026-04-07T09:00:00:Z","depth":"0","parameterNumber":3,"parameterNumberName":"V-component_of_CURRENTS"},"data":[0,0,0,-0.0004,-0.0004,-0.0017,-0.0017,-0.0031,-0.0031,0,0,0,0,0,0,0,0,0,0,0,0.0001,0.0001,-0.0004,-0.0004,-0.0017,-0.0017,-0.0031,-0.0031,0,0,0,0,0,0,0,0,0,0,0,0.0001,0.0001,0.0001,-0.0004,-0.0017,-0.0017,-0.0031,-0.0023,0,0,0,0,0,0,0,0,0,0,-0.0011,-0.0005,0.0001,0.0001,-0.0004,-0.0017,-0.0017,-0.0023,-0.0023,-0.0022,0,-0.0021,0,-0.0024,-0.0031,-0.0031,0,0,0,-0.0009,-0.0004,-0.0007,0.0001,-0.0004,-0.0017,-0.0013,-0.0023,-0.0024,-0.0023,-0.0021,-0.0022,-0.0024,-0.0031,-0.0031,-0.0006,-0.0006,0,0,-0.0008,-0.0003,-0.0007,-0.0008,-0.0003,-0.0012,-0.0013,-0.0024,-0.0023,-0.0021,-0.0022,-0.0024,-0.0031,-0.0031,-0.0007,-0.0006,0,0,0,-0.0003,-0.0003,-0.0006,-0.0007,-0.0008,-0.0012,-0.0013,-0.0022,-0.0023,-0.0022,-0.0024,-0.0031,-0.0031,-0.0007,-0.0006,0.0045,0,0,0,-0.0003,0.0001,-0.0005,-0.0003,-0.0008,-0.0015,-0.0012,-0.0022,-0.0024,-0.0024,-0.0031,-0.0031,-0.0007,-0.0007,0.0042,0.0078,0,0,0,0.0,0.0001,0.0001,-0.0002,-0.0006,-0.0015,-0.0017,-0.0023,-0.0025,-0.0031,-0.0031,-0.0007,-0.0007,0.0041,0.0074,0.0106,0,0,0,0.0004,0.0016,0.0001,0.0017,-0.0005,0.0009,-0.0017,-0.0014,-0.0016,-0.0031,-0.0007,-0.0006,0.004,0.0071,0.0104,0.0152,0.0167,0,0,0.0023,0.0018,0.0028,0.0016,0.0046,0.001,0.0041,0.0021,-0.0005,-0.0005,-0.0005,0.0043,0.0074,0.0106,0.0195,0.0209,0,0,0,0.0037,0.0049,0.0055,0.0068,0.0067,0.0078,0.0052,0.0047,0.0041,-0.0002,0.0044,0.0062,0.008,0.0104,0.0115,0.0051,-0.0003,-0.0003,-0.0003,0.0079,0.0081,0.011,0.0116,0.0124,0.0125,0.0131,0.0118,0.0081,0.0086,0.0104,0.0165,0.0191,0.02,0.0133,0.0097,0.0097,0.0097,0.0097,0.0129,0.0151,0.0156,0.0182,0.0189,0.0209,0.0209,0.0191,0.0198,0.0154,0.0169,0.0157,0.0215,0.0139,0.01,0.01,0.0099,0.0099,0.0099,0.0166,0.0177,0.0187,0.0226,0.0266,0.0272,0.0329,0.0305,0.0258,0.027,0.0284,0.0283,0.0216,0.0272,0.0272,0.0272,0.0273,0.0273,0.0273,0.0199,0.0211,0.0247,0.0282,0.0317,0.0375,0.0398,0.0408,0.0395,0.0356,0.0356,0.0237,0.0218,0.0211,0.0278,0.0277,0.0276,0.0276,0.0276,0.0251,0.0251,0.0309,0.0345,0.0433,0.0516,0.053,0.0559,0.0541,0.0546,0.0375,0.0397,0.0387,0.0378,0.0375,0.048,0.048,0.048,0.048,0.0286,0.029,0.037,0.0439,0.0528,0.0586,0.0674,0.0674,0.0564,0.0485,0.0421,0.0377,0.0371,0.0356,0.0347,0.0341,0.0435,0.0435,0.0435,0.0329,0.0346,0.0409,0.0466,0.0568,0.0661,0.0733,0.0721,0.0545,0.0422,0.0323,0.0325,0.0245,0.0241,0.0202,0.0195,0.0179,0,0]}],[{"header":{"parameterUnit":"m.s-1","parameterCategory":2,"la1":30.2992,"la2":30.254,"lo1":-89.0895,"lo2":-89.0443,"dy":0.0025,"dx":0.0025,"nx":19,"ny":19,"refTime":"2026-04-07T09:00:00:Z","depth":"2","parameterNumber":2,"parameterNumberName":"U-component_of_CURRENTS"},"data":[0,0,0,0.1623,0.1623,0.1616,0.1616,0.1616,0.1616,0,0,0,0,0,0,0,0,0,0,0,0.1629,0.1629,0.1623,0.1623,0.1616,0.1616,0.1616,0.1616,0,0,0,0,0,0,0,0,0,0,0,0.1629,0.1629,0.1629,0.1623,0.1616,0.1616,0.1616,0.1618,0,0,0,0,0,0,0,0,0,0,0.1623,0.1629,0.1629,0.1629,0.1623,0.1616,0.1616,0.1618,0.1618,0.1623,0,0.1627,0,0.1623,0.1616,0.1616,0,0,0,0.1619,0.1629,0.1627,0.1629,0.1623,0.1616,0.1618,0.1618,0.1618,0.1623,0.1627,0.1627,0.1623,0.1616,0.1616,0.1653,0.1653,0,0,0.162,0.1626,0.1627,0.1628,0.1629,0.1618,0.1618,0.1617,0.1621,0.1627,0.1627,0.1623,0.1616,0.1616,0.1652,0.1653,0,0,0,0.1624,0.1626,0.1624,0.1628,0.1626,0.1618,0.1618,0.162,0.162,0.1627,0.1622,0.1616,0.1617,0.1652,0.1652,0.1688,0,0,0,0.1624,0.1629,0.1625,0.1628,0.1626,0.1622,0.1621,0.162,0.162,0.1622,0.1616,0.1617,0.1652,0.1652,0.1686,0.1695,0,0,0,0.1628,0.1629,0.163,0.1628,0.1627,0.1622,0.1621,0.162,0.1618,0.1616,0.1617,0.1651,0.1652,0.1685,0.1693,0.1719,0,0,0,0.1631,0.1637,0.1631,0.1639,0.1627,0.1632,0.1621,0.1625,0.1626,0.1616,0.1652,0.1652,0.1684,0.1691,0.1717,0.166,0.1663,0,0,0.164,0.1639,0.1644,0.1638,0.1648,0.1633,0.1653,0.1649,0.1641,0.1651,0.1651,0.1687,0.1693,0.1718,0.1706,0.1707,0,0,0,0.1647,0.1651,0.1654,0.1658,0.1659,0.1669,0.1663,0.167,0.1684,0.1646,0.1693,0.1695,0.1711,0.1673,0.1674,0.1656,0.1656,0.1656,0.1656,0.1663,0.1663,0.1666,0.167,0.1679,0.1696,0.171,0.1719,0.1708,0.1726,0.173,0.1779,0.1739,0.174,0.1738,0.1738,0.1738,0.1739,0.1739,0.166,0.1654,0.1665,0.1666,0.1687,0.1706,0.1751,0.1762,0.1793,0.1772,0.1785,0.1718,0.1743,0.1742,0.1741,0.1741,0.174,0.174,0.174,0.165,0.1645,0.1646,0.1653,0.168,0.1717,0.1758,0.18,0.182,0.1839,0.1794,0.1792,0.1795,0.1847,0.1847,0.1848,0.1848,0.1848,0.1848,0.1629,0.1631,0.1629,0.1645,0.1655,0.1699,0.1768,0.1796,0.1826,0.1825,0.1824,0.1815,0.1812,0.1802,0.1851,0.185,0.185,0.1849,0.1849,0.1608,0.1618,0.1608,0.1612,0.163,0.1625,0.1714,0.1753,0.18,0.1805,0.1817,0.1817,0.1798,0.1796,0.1785,0.1827,0.1827,0.1827,0.1827,0.1598,0.1602,0.1575,0.1565,0.1574,0.1586,0.1543,0.1543,0.1632,0.1639,0.1647,0.1597,0.1603,0.157,0.1573,0.1556,0.1538,0.1537,0.1537,0.1585,0.1578,0.1545,0.1528,0.1529,0.1505,0.1393,0.1249,0.1314,0.1522,0.1558,0.1815,0.1762,0.1763,0.1727,0.1726,0.1705,0,0]},{"header":{"parameterUnit":"m.s-1","parameterCategory":2,"la1":30.2992,"la2":30.254,"lo1":-89.0895,"lo2":-89.0443,"dy":0.0025,"dx":0.0025,"nx":19,"ny":19,"refTime":"2026-04-07T09:00:00:Z","depth":"2","parameterNumber":3,"parameterNumberName":"V-component_of_CURRENTS"},"data":[0,0,0,0.0147,0.0147,0.0128,0.0128,0.0115,0.0115,0,0,0,0,0,0,0,0,0,0,0,0.0154,0.0154,0.0148,0.0147,0.0128,0.0128,0.0115,0.0115,0,0,0,0,0,0,0,0,0,0,0,0.0154,0.0154,0.0154,0.0147,0.0128,0.0128,0.0115,0.0126,0,0,0,0,0,0,0,0,0,0,0.0142,0.0147,0.0154,0.0154,0.0147,0.0128,0.0128,0.0126,0.0125,0.0128,0,0.0127,0,0.0123,0.0115,0.0115,0,0,0,0.0143,0.0148,0.0145,0.0154,0.0147,0.0128,0.0136,0.0125,0.0124,0.0127,0.0127,0.0126,0.0123,0.0115,0.0115,0.0138,0.0138,0,0,0.0144,0.0148,0.0145,0.0144,0.0145,0.0136,0.0135,0.0124,0.0124,0.0127,0.0126,0.0123,0.0115,0.0115,0.0138,0.0138,0,0,0,0.015,0.0149,0.0145,0.0145,0.0141,0.0136,0.0134,0.0124,0.0124,0.0126,0.0122,0.0115,0.0115,0.0138,0.0138,0.0182,0,0,0,0.015,0.0153,0.0146,0.0148,0.0142,0.0131,0.0135,0.0124,0.0123,0.0123,0.0115,0.0115,0.0137,0.0138,0.018,0.0213,0,0,0,0.0154,0.0153,0.0152,0.0148,0.0142,0.0131,0.0129,0.0124,0.0121,0.0115,0.0115,0.0137,0.0138,0.0178,0.0209,0.0237,0,0,0,0.0157,0.0166,0.0152,0.0164,0.0142,0.0155,0.0129,0.013,0.0128,0.0115,0.0137,0.0138,0.0178,0.0207,0.0235,0.0274,0.0287,0,0,0.0173,0.0168,0.0177,0.0164,0.0192,0.0157,0.0183,0.0163,0.0139,0.014,0.014,0.0181,0.0209,0.0237,0.0313,0.0325,0,0,0,0.0185,0.0195,0.0201,0.0211,0.021,0.0219,0.0193,0.0187,0.0179,0.0141,0.0182,0.0199,0.0215,0.0234,0.0243,0.0141,0.0141,0.0141,0.0141,0.0218,0.0222,0.0248,0.0254,0.0261,0.0261,0.0265,0.0251,0.0217,0.0219,0.0235,0.0289,0.031,0.0317,0.0228,0.0228,0.0229,0.0229,0.0229,0.0262,0.0281,0.0287,0.0311,0.0318,0.0336,0.0336,0.0317,0.0321,0.0281,0.0293,0.028,0.0331,0.0232,0.0232,0.0231,0.0231,0.0231,0.023,0.0292,0.0303,0.031,0.0347,0.0385,0.0392,0.0443,0.0419,0.0374,0.0383,0.0392,0.0392,0.0321,0.0384,0.0384,0.0384,0.0384,0.0385,0.0385,0.0318,0.0329,0.0362,0.0395,0.0429,0.0483,0.0505,0.0513,0.0495,0.0456,0.0456,0.0342,0.0337,0.033,0.0389,0.0388,0.0388,0.0387,0.0387,0.0363,0.0362,0.0416,0.0449,0.0534,0.0611,0.0625,0.0644,0.0626,0.0626,0.0495,0.0491,0.0482,0.0474,0.0471,0.0563,0.0563,0.0563,0.0563,0.0393,0.0397,0.047,0.0535,0.0619,0.0675,0.0747,0.0734,0.0671,0.0612,0.061,0.0578,0.0571,0.0564,0.0554,0.0551,0.0664,0.0664,0.0664,0.0431,0.0447,0.0504,0.0558,0.0656,0.0741,0.0793,0.0751,0.0656,0.0665,0.06,0.0575,0.0521,0.0512,0.0492,0.0479,0.047,0,0]}],[{"header":{"parameterUnit":"m.s-1","parameterCategory":2,"la1":30.2992,"la2":30.254,"lo1":-89.0895,"lo2":-89.0443,"dy":0.0025,"dx":0.0025,"nx":19,"ny":19,"refTime":"2026-04-07T09:00:00:Z","depth":"4","parameterNumber":2,"parameterNumberName":"U-component_of_CURRENTS"},"data":[0,0,0,0.1088,0.1089,0.1175,0.1176,0.1253,0.1254,0,0,0,0,0,0,0,0,0,0,0,0.1065,0.1066,0.1087,0.109,0.1175,0.1176,0.1253,0.1254,0,0,0,0,0,0,0,0,0,0,0,0.1065,0.1065,0.1066,0.109,0.1175,0.1176,0.1253,0.1196,0,0,0,0,0,0,0,0,0,0,0.1117,0.1106,0.1065,0.1066,0.109,0.1175,0.1176,0.1194,0.12,0.1205,0,0.1226,0,0.1238,0.1258,0.1258,0,0,0,0.1091,0.1101,0.1118,0.1067,0.1091,0.1175,0.1137,0.1198,0.1204,0.1212,0.1228,0.1231,0.124,0.1258,0.1259,0.1344,0.1345,0,0,0.1086,0.1085,0.1113,0.1122,0.1124,0.1134,0.114,0.1202,0.1216,0.1228,0.1233,0.1241,0.1259,0.1259,0.1344,0.1344,0,0,0,0.1072,0.1082,0.1098,0.1119,0.1135,0.1137,0.1143,0.1214,0.1218,0.1233,0.1242,0.1259,0.126,0.1343,0.1344,0.1383,0,0,0,0.1069,0.1073,0.1096,0.1096,0.1135,0.1181,0.1153,0.1214,0.1221,0.1241,0.1259,0.1261,0.1343,0.1344,0.138,0.1389,0,0,0,0.1059,0.1072,0.1084,0.1096,0.1131,0.1181,0.1189,0.1216,0.1226,0.1258,0.1261,0.1342,0.1343,0.1378,0.1386,0.1413,0,0,0,0.1051,0.1072,0.1084,0.1115,0.113,0.1178,0.1189,0.1237,0.1268,0.1259,0.1343,0.1344,0.1378,0.1384,0.1411,0.122,0,0,0,0.1065,0.1074,0.109,0.1103,0.1146,0.1166,0.1225,0.1272,0.1284,0.1319,0.1321,0.1381,0.1386,0.1413,0.1286,0,0,0,0,0.1086,0.1101,0.1117,0.115,0.1182,0.1231,0.1272,0.1298,0.1356,0.1307,0.1392,0.1394,0.141,0.1293,0.1349,0.1349,0.1349,0.1349,0.1349,0.1098,0.1116,0.1146,0.1179,0.1219,0.1284,0.1328,0.1372,0.138,0.1418,0.1434,0.1491,0.1371,0.1448,0.1448,0.1448,0.1448,0.1449,0.1449,0.1105,0.1114,0.1161,0.1198,0.1255,0.1314,0.1393,0.1424,0.1491,0.1481,0.1495,0.1352,0.1453,0.1452,0.1451,0.1451,0.145,0.145,0.145,0.109,0.1096,0.1134,0.1194,0.127,0.1345,0.1409,0.148,0.1523,0.155,0.1429,0.1518,0.1505,0.1565,0.1566,0.1566,0.1566,0.1566,0.1566,0.105,0.1085,0.1123,0.1195,0.1242,0.1323,0.1432,0.1461,0.1524,0.1449,0.1567,0.153,0.1527,0.1512,0.1569,0.1568,0.1568,0.1568,0.1568,0.1016,0.1052,0.109,0.1135,0.1221,0.1257,0.1377,0.1379,0.1401,0.1372,0.1391,0.1399,0.1366,0.1366,0.1344,0.1354,0.1351,0.1349,0,0.0994,0.1013,0.1058,0.1096,0.1128,0.1209,0.1177,0.1224,0.1271,0.1229,0.1421,0.1444,0.1447,0.1411,0.1407,0.1382,0,0,0,0.0976,0.0992,0.1004,0.1048,0.1071,0.1083,0.1159,0.1126,0.1262,0.1215,0.1293,0.1308,0.1469,0.1577,0.1545,0.154,0.1515,0,0]},{"header":{"parameterUnit":"m.s-1","parameterCategory":2,"la1":30.2992,"la2":30.254,"lo1":-89.0895,"lo2":-89.0443,"dy":0.0025,"dx":0.0025,"nx":19,"ny":19,"refTime":"2026-04-07T09:00:00:Z","depth":"4","parameterNumber":3,"parameterNumberName":"V-component_of_CURRENTS"},"data":[0,0,0,0.0312,0.0312,0.0317,0.0317,0.0315,0.0315,0,0,0,0,0,0,0,0,0,0,0,0.0313,0.0313,0.0312,0.0312,0.0317,0.0317,0.0315,0.0315,0,0,0,0,0,0,0,0,0,0,0,0.0313,0.0313,0.0313,0.0312,0.0317,0.0317,0.0315,0.0313,0,0,0,0,0,0,0,0,0,0,0.0309,0.0311,0.0313,0.0313,0.0312,0.0317,0.0317,0.0313,0.0313,0.0311,0,0.0315,0,0.0315,0.0315,0.0315,0,0,0,0.0311,0.0311,0.0313,0.0313,0.0312,0.0317,0.0314,0.0313,0.0313,0.0311,0.0315,0.0315,0.0315,0.0315,0.0315,0.0324,0.0325,0,0,0.031,0.0312,0.0313,0.0313,0.0318,0.0314,0.0315,0.0313,0.0315,0.0315,0.0315,0.0315,0.0315,0.0315,0.0324,0.0324,0,0,0,0.0311,0.0312,0.0314,0.0313,0.0314,0.0314,0.0315,0.0315,0.0316,0.0315,0.0315,0.0315,0.0315,0.0324,0.0324,0.0355,0,0,0,0.031,0.0312,0.0314,0.0315,0.0315,0.0316,0.0317,0.0316,0.0316,0.0315,0.0315,0.0315,0.0324,0.0324,0.0354,0.0377,0,0,0,0.0312,0.0312,0.0314,0.0315,0.0317,0.0316,0.0317,0.0316,0.0316,0.0315,0.0315,0.0324,0.0324,0.0353,0.0374,0.0387,0,0,0,0.0311,0.032,0.0314,0.0326,0.0317,0.0331,0.0317,0.0323,0.0325,0.0315,0.0324,0.0324,0.0353,0.0373,0.0386,0.0372,0,0,0,0.0322,0.0321,0.0329,0.0324,0.0346,0.033,0.035,0.0344,0.0328,0.0323,0.0323,0.0354,0.0374,0.0387,0.0389,0,0,0,0,0.0332,0.034,0.0346,0.0357,0.0361,0.0371,0.036,0.0356,0.0351,0.033,0.0352,0.0363,0.037,0.0358,0.0326,0.0326,0.0326,0.0326,0.0326,0.035,0.0356,0.0376,0.0385,0.0393,0.04,0.0403,0.0393,0.0374,0.0373,0.0386,0.0415,0.0403,0.0378,0.0378,0.0378,0.0378,0.0379,0.0379,0.0375,0.0388,0.04,0.0421,0.0431,0.0448,0.0446,0.0436,0.0434,0.0411,0.0415,0.0389,0.0382,0.0381,0.0381,0.038,0.038,0.038,0.038,0.0387,0.0395,0.0409,0.0443,0.0478,0.0489,0.0521,0.0506,0.047,0.0474,0.0454,0.0437,0.0437,0.0474,0.0474,0.0475,0.0475,0.0475,0.0475,0.0393,0.0409,0.0439,0.0474,0.0506,0.0548,0.0567,0.0562,0.0532,0.0495,0.0486,0.0447,0.0444,0.0442,0.0477,0.0477,0.0477,0.0476,0.0476,0.041,0.042,0.0464,0.0497,0.0569,0.0598,0.0621,0.0593,0.0583,0.0552,0.0498,0.0496,0.0484,0.0481,0.048,0.0527,0.0527,0.0527,0,0.0421,0.0429,0.0489,0.0544,0.0599,0.063,0.0627,0.0618,0.0565,0.0549,0.0579,0.0519,0.0516,0.0504,0.05,0.05,0,0,0,0.0438,0.0454,0.0496,0.0548,0.061,0.0618,0.0626,0.0603,0.0574,0.0559,0.0526,0.0526,0.0528,0.0485,0.0462,0.0459,0.0455,0,0]}]]